| time (UTC) | temp F | wind direction | speed MPH | gust MPH | rain 1hr in | rain 24hr in | rain mn in | humidity % | barometer mb |
| 20260508060233 | 47 | 150 | 0.0 | 1.0 | 0.00 | 0.01 | 0.00 | 93 | 1011.2 |
| 20260508050212 | 45 | 154 | 0.0 | 0.0 | 0.00 | 0.02 | 0.00 | 92 | 1010.9 |
| 20260508030207 | 46 | 292 | 0.0 | 0.0 | 0.00 | 0.02 | 0.00 | 91 | 1010.8 |
| 20260508020206 | 47 | 292 | 0.0 | 0.0 | 0.00 | 0.02 | 0.00 | 90 | 1010.6 |
| 20260508010224 | 48 | 292 | 0.0 | 0.0 | 0.00 | 0.05 | 0.00 | 89 | 1010.4 |
| 20260508000212 | 49 | 292 | 0.0 | 0.0 | 0.00 | 0.06 | 0.00 | 87 | 1010.6 |
| 20260507220206 | 52 | 303 | 0.0 | 0.0 | 0.00 | 0.06 | 0.06 | 84 | 1011.3 |
| 20260507210206 | 53 | 320 | 0.0 | 0.0 | 0.00 | 0.06 | 0.06 | 83 | 1011.2 |
| 20260507200206 | 54 | 321 | 0.0 | 4.0 | 0.00 | 0.06 | 0.06 | 79 | 1010.8 |
| 20260507190207 | 57 | 340 | 0.0 | 4.0 | 0.00 | 0.06 | 0.06 | 70 | 1010.5 |
| 20260507180206 | 59 | 344 | 0.0 | 1.0 | 0.00 | 0.06 | 0.06 | 58 | 1010.3 |
| 20260507170207 | 61 | 10 | 0.0 | 4.0 | 0.00 | 0.08 | 0.06 | 55 | 1010.1 |
| 20260507160232 | 62 | 315 | 0.0 | 5.0 | 0.00 | 0.09 | 0.06 | 56 | 1010.1 |
| 20260507150207 | 62 | 9 | 0.0 | 5.0 | 0.00 | 0.10 | 0.06 | 55 | 1010.1 |
| 20260507140206 | 64 | 295 | 1.0 | 8.0 | 0.00 | 0.10 | 0.06 | 47 | 1010.1 |
| 20260507130218 | 62 | 184 | 1.0 | 10.0 | 0.00 | 0.13 | 0.06 | 56 | 1010.4 |
| 20260507120206 | 60 | 349 | 0.0 | 6.0 | 0.00 | 0.19 | 0.06 | 69 | 1010.6 |
| 20260507110207 | 58 | 139 | 0.0 | 0.0 | 0.00 | 0.37 | 0.06 | 74 | 1010.6 |
| 20260507100207 | 58 | 296 | 0.0 | 4.0 | 0.00 | 0.43 | 0.06 | 71 | 1010.8 |
| 20260507080208 | 53 | 164 | 0.0 | 3.0 | 0.00 | 0.43 | 0.06 | 93 | 1010.3 |